Location: Newark
(43.0000°N, 1.6781°W)
Time: 18:51:56
(UTC+00:00)

Transit 2A Rocket - Pass Details

Date: 27 April 2021
Orbit: 594 x 908 km, 66.7° (Epoch: 05 May)

Event Time Altitude Azimuth Distance (km) Brightness Sun altitude
Rises 21:16:30 0° 337° (NNW) 2,889 9.2 -21.2°
Reaches altitude 10° 21:18:59 10° 350° (N) 2,011 8.0 -21.5°
Maximum altitude 21:22:53 28° 50° (NE) 1,235 6.0 -22.0°
Enters shadow 21:23:38 27° 67° (ENE) 1,283 6.0 -22.1°
